Weather in Ples

Russia / Saratov Oblast     51°17′34″N   47°46′39″E
temp.,
°C
wind,
m/s
gust,
m/s
humid.,
%
clouds,
%
prec.,
mm/h
press.,
hPa
HPBL,
m
17 may, mon
mon1701:00+21se484768 0.0 1015151
04:00+20sse344782 0.0 101656
07:00+22se35455 0.0 1016105
10:00+28se582727 0.0 1017640
13:00+31sse78185 0.0 10163085
16:00+31se78185 0.0 10153056
19:00+27se47305 0.0 1014183
22:00+22e48384 0.0 101495
18 may, tue
tue1801:00+20e410405 0.0 1014136
04:00+18e512400 0.0 1014176
07:00+20ese614424 0.0 1013268
10:00+27se610290 0.0 1013565
13:00+32se89180 0.0 10133690
16:00+32se89195 0.0 10123657
19:00+28ese61232100 0.0 1012377
22:00+23e514363 0.0 1012245
19 may, wed
wed1901:00+22e615353 0.0 1011267
04:00+19e4133884 0.0 1011237
07:00+21e71645100 0.0 1010347
10:00+28se812350 0.0 10101003
13:00+31se1011254 0.0 10102582
16:00+31ese992364 0.0 10103528
19:00+28ese8133315 0.0 1010540
22:00+25ese8174418 0.0 1010593
20 may, thu
thu2001:00+21sse61356100 0.3 1011446
04:00+19se6116888 0.3 1012363
07:00+18ssw227795 0.2 1013385
10:00+20s1368100 0.3 1013884
13:00+17wsw458782 3.3 1015285
16:00+21ssw455783 4.2 10141320
19:00+22sw244710 0.1 10151258
22:00+18wsw236198 0.1 101676
21 may, fri
fri2101:00+16sw22691 0.0 101725
04:00+14sw33750 0.0 101842
07:00+17sw346985 0.0 1019193
10:00+21sw56524 0.0 10201136
13:00+24wsw454136 0.0 10201746
16:00+25w343781 0.0 10202006
19:00+24nnw1144100 0.0 102069
22:00+20ene2250100 0.0 102111